Powrót do katalogu

OPS 0082

TRANSIT 13

AktywnyNawigacjaPO
NORAD 2176·PAYLOAD·🇺🇸 United States

Wystrzelony May 19, 1966 z Vandenberg Space Force Base

Loading…

Następne Przeloty (najbliższe 24 godziny)

TLE

ŚwieżeSource: Space-Track

Epoka: Sep 14, 2026, 10:54 UTC

1 02176U 66041A   26257.45447732  .00000331  00000-0  19831-3 0  9993
2 02176  90.2227  85.4468 0063025 183.4697 176.6057 14.04364425 79965

Śledź OPS 0082 w czasie rzeczywistym z AllMySat

Download on the App Store